GFSFLT2_sfc_rhum_000.txt.gz
RH
51 53 67 89 91 90 92 89 86 87 87 88 90 90 90 87 84 82 82 83 83 84 85 84 81 82 87 88 93 90 49 38
52 51 51 57 55 87 86 89 90 90 92 93 95 94 91 89 88 84 85 84 84 85 86 85 82 82 86 90 92 92 55 42
58 54 58 56 48 51 70 81 85 87 84 92 84 63 76 79 91 88 90 87 88 87 89 89 90 89 88 89 92 60 55 44
43 59 58 54 40 48 58 58 57 57 57 64 58 76 80 89 92 90 88 90 90 91 89 88 85 49 54 69 54 59 66 52
38 50 58 55 53 46 49 73 63 56 64 62 74 82 90 82 97 98 95 89 92 93 86 75 71 63 62 65 84 93 90 84
33 46 55 56 44 44 46 44 47 50 60 68 72 76 78 88 92 94 96 93 93 91 95 97 88 71 82 92 80 89 86 86
30 37 45 47 49 45 46 45 43 46 47 56 54 61 74 76 78 81 86 94 96 94 78 80 91 92 90 87 80 80 82 88
26 29 37 37 42 46 42 39 35 35 40 50 58 56 71 73 85 84 88 91 91 86 89 82 87 84 83 75 74 70 78 81
23 25 30 33 36 32 28 27 28 32 39 53 55 54 64 68 62 66 66 82 87 92 94 93 89 84 77 65 67 75 82 80
21 16 25 28 29 24 22 24 26 29 37 41 48 49 49 52 52 58 62 65 74 82 89 90 97 97 94 82 72 62 70 72
22 24 24 24 26 25 30 33 25 26 31 31 39 37 40 36 39 44 47 43 50 53 59 65 64 75 74 74 85 82 67 65
22 22 26 26 24 26 25 26 26 25 25 26 31 31 33 31 31 39 34 32 34 36 39 37 44 61 57 70 83 77 79 75
21 23 26 23 23 23 23 24 25 26 23 27 30 26 28 32 26 29 32 34 38 37 34 36 34 43 43 59 66 86 77 79
20 20 23 22 19 20 22 23 21 21 24 30 30 32 30 27 30 28 32 29 34 37 39 34 31 35 42 43 66 64 73 77
23 20 20 22 23 21 22 24 26 23 23 23 28 34 34 37 34 34 34 34 32 37 36 38 34 30 36 45 47 65 76 60
26 22 20 21 26 22 28 21 20 19 24 23 26 32 36 36 38 40 44 39 39 36 28 37 38 36 29 26 46 41 43 48
31 24 23 22 27 30 28 30 24 25 28 34 34 34 35 35 37 43 46 43 43 46 46 41 36 36 34 32 32 33 38 48
34 28 24 26 29 33 36 35 32 30 30 31 28 28 28 32 32 38 41 43 44 43 46 47 46 42 37 36 33 33 31 32
31 28 27 26 32 34 37 38 38 35 33 29 32 29 30 30 32 36 32 35 38 39 42 43 42 41 42 37 33 32 32 31
28 25 28 26 33 37 38 36 30 29 32 30 30 32 33 35 37 36 36 36 38 38 37 36 39 44 46 44 37 31 29 30

GFSFLT2_sfc_rhum_003.txt.gz
RH
42 44 66 87 85 83 85 85 81 81 84 83 82 85 84 82 89 87 85 79 82 78 84 82 78 81 82 84 90 90 59 52
40 40 40 47 49 79 81 85 85 84 88 89 88 82 84 87 81 81 82 79 78 89 84 82 80 81 85 86 87 89 58 45
48 44 48 47 38 45 73 79 78 82 81 83 81 57 69 64 83 84 81 83 80 84 82 85 86 88 86 88 89 49 46 53
35 52 54 50 34 39 48 52 49 50 50 57 49 59 62 63 79 88 86 86 84 84 86 81 88 64 67 80 47 40 48 46
35 47 55 54 47 43 62 56 54 51 56 52 64 59 63 62 69 67 76 83 78 88 92 92 92 93 93 76 48 49 46 45
33 47 52 50 38 38 43 42 44 43 52 56 59 56 68 66 69 66 75 78 81 89 97 95 88 85 92 90 86 73 64 65
29 37 45 47 45 42 43 41 38 40 40 48 44 46 58 56 59 57 61 65 79 84 87 90 93 89 91 89 83 78 78 71
28 31 36 37 40 43 41 37 34 33 38 45 52 50 57 55 55 57 56 70 78 88 90 87 89 86 86 88 85 81 75 66
25 26 30 33 34 31 26 25 28 32 38 47 47 45 52 48 45 45 48 60 73 78 81 87 89 87 85 81 81 77 72 77
20 13 23 26 27 24 21 23 27 31 35 38 43 43 42 43 40 42 45 44 48 55 65 75 78 81 88 88 75 70 63 63
20 20 22 24 25 20 26 31 24 25 30 30 37 35 34 32 34 37 39 33 36 35 36 47 50 54 64 62 65 76 69 65
20 20 22 24 22 25 23 24 25 26 25 25 31 28 29 29 29 35 34 31 33 37 39 33 36 40 41 40 52 77 82 72
21 22 23 22 21 22 23 26 25 25 22 26 28 24 28 31 26 28 32 31 35 40 39 41 35 34 42 43 36 46 64 70
21 20 22 23 19 21 21 23 21 22 23 29 31 30 30 28 30 30 31 32 38 38 41 39 38 36 37 39 43 39 40 59
23 20 20 23 23 18 21 24 26 23 23 25 30 34 32 32 33 33 35 36 35 38 38 40 38 40 43 36 40 44 47 33
25 23 21 20 24 23 29 23 22 21 22 20 20 26 31 32 32 33 36 36 40 42 33 43 46 42 40 32 44 39 42 47
30 26 24 22 23 32 31 35 30 24 25 28 31 31 31 30 32 35 38 36 40 47 50 51 43 46 43 42 45 40 43 43
32 29 26 24 25 27 40 43 37 32 35 36 40 35 36 33 28 35 38 39 39 43 49 50 50 49 46 46 44 45 41 41
30 30 29 26 28 31 37 40 40 40 36 35 33 34 31 34 36 43 36 35 35 37 44 48 46 46 49 44 40 39 37 37
26 26 27 26 27 30 33 35 35 35 32 34 34 31 31 32 34 34 34 34 35 39 40 42 45 46 49 46 39 38 36 35

GFSFLT2_sfc_rhum_006.txt.gz
RH
49 65 77 87 86 84 85 83 82 80 80 78 85 90 91 89 89 87 82 85 88 81 83 85 85 85 85 87 89 90 94 70
46 47 62 79 73 81 82 85 83 80 84 84 87 90 91 88 86 83 79 86 85 81 79 90 86 87 88 87 88 89 93 72
57 53 58 58 56 68 80 84 84 87 86 86 88 78 77 82 85 84 79 78 77 76 74 77 80 83 88 87 88 83 68 66
46 62 67 66 43 50 72 62 68 72 70 75 75 75 85 81 87 87 84 82 82 80 80 78 77 84 91 89 88 71 63 66
45 60 68 69 65 68 66 67 71 71 69 71 79 74 80 82 78 84 85 85 91 88 89 92 90 94 94 94 92 92 78 65
43 60 65 67 61 58 65 59 63 67 70 69 78 81 82 82 78 80 83 83 82 88 97 94 95 92 95 94 94 96 90 73
40 52 61 64 60 66 66 64 62 60 63 63 69 71 80 76 80 78 80 80 88 93 93 94 95 96 94 94 90 91 92 89
40 45 54 54 59 63 66 62 59 57 61 65 65 74 78 77 75 74 75 78 84 90 95 93 92 94 94 92 91 87 86 85
38 41 48 52 55 56 57 52 49 57 62 60 61 65 66 64 67 66 70 74 78 85 86 90 95 94 94 94 94 91 90 90
33 23 40 45 49 45 43 45 53 55 62 63 59 57 56 60 62 66 65 67 65 65 68 73 82 86 93 94 90 85 86 84
32 32 34 40 42 41 44 47 48 50 58 58 55 51 49 52 58 66 61 56 57 56 60 61 59 59 53 67 69 73 70 74
33 33 36 40 41 44 46 48 46 47 50 48 50 49 45 49 54 54 53 54 56 61 63 62 61 60 40 44 59 59 73 85
32 32 38 37 42 46 46 50 48 49 46 44 49 45 47 50 53 50 53 54 57 56 60 61 66 63 64 58 57 49 54 52
34 33 35 36 36 40 43 46 42 41 45 51 47 51 47 46 53 49 50 56 58 62 63 64 66 62 72 63 62 50 54 52
35 33 33 37 39 36 41 44 46 44 44 45 51 51 53 53 52 54 54 57 61 64 63 62 66 65 61 69 65 65 57 47
40 38 34 33 43 37 46 39 36 35 43 39 36 52 55 50 52 54 58 59 60 64 52 71 68 68 66 53 64 62 61 61
46 42 41 38 42 46 43 48 45 47 49 48 46 48 45 43 46 53 58 62 64 66 67 67 69 70 66 69 66 62 60 62
49 47 38 41 43 47 54 52 53 54 53 55 52 51 54 54 48 57 59 60 60 62 63 62 64 64 62 60 59 60 57 57
47 44 40 41 49 51 51 58 59 58 57 56 52 52 49 51 51 54 54 54 55 56 58 60 60 57 54 54 50 50 50 48
40 36 38 38 43 47 53 54 55 56 56 54 53 51 50 47 48 51 51 52 56 58 57 57 59 61 57 57 54 52 48 45

GFSFLT2_sfc_rhum_009.txt.gz
RH
90 88 86 86 85 84 82 82 85 86 86 88 93 93 93 91 88 86 88 88 89 89 89 89 89 88 86 87 87 87 93 90
82 87 88 89 87 84 84 82 84 88 89 88 95 92 91 90 87 86 87 84 82 81 88 91 90 88 88 89 89 89 95 92
66 72 82 87 78 79 84 84 85 88 88 86 94 96 92 83 87 84 79 80 77 74 77 84 77 79 85 89 91 95 86 78
69 72 75 74 58 84 85 83 90 90 86 87 89 88 86 86 86 87 84 82 82 80 78 76 77 87 92 91 91 90 91 78
64 75 79 78 76 87 91 82 86 83 81 86 82 87 92 97 98 96 97 86 97 92 93 95 89 93 94 94 91 89 97 90
66 70 74 75 76 82 81 81 80 86 82 83 90 96 93 93 93 93 93 95 94 94 98 95 93 94 96 96 95 93 91 89
61 68 73 71 71 76 71 72 72 71 76 71 80 89 92 91 89 87 92 94 93 96 97 96 96 95 96 97 96 92 92 91
54 61 64 64 75 70 70 67 60 66 74 73 73 82 86 85 87 84 88 90 94 94 95 92 98 97 97 96 96 96 93 89
48 50 60 59 68 66 65 62 62 67 70 66 65 74 68 71 73 78 78 82 87 88 90 91 94 94 94 97 95 93 97 94
40 34 54 55 62 61 59 51 57 66 72 70 61 60 64 67 71 73 62 69 70 58 68 65 73 71 79 87 96 88 84 81
38 31 44 46 46 49 53 52 57 63 75 70 63 59 53 56 69 64 57 65 63 58 60 65 64 64 57 54 58 61 66 55
36 36 32 42 45 44 51 50 48 59 66 66 59 59 52 51 62 66 57 60 66 62 60 65 67 67 54 54 61 68 67 69
32 35 38 41 42 46 48 55 53 56 51 54 57 56 50 50 55 61 62 60 62 59 65 62 63 68 71 69 65 60 56 58
36 34 38 40 43 45 46 49 50 50 52 56 57 56 55 52 55 55 54 58 55 59 70 70 71 67 73 73 74 63 61 58
39 38 37 43 40 42 47 53 51 46 49 55 55 53 56 56 56 61 60 62 63 66 63 62 69 71 65 71 75 72 69 60
41 40 40 40 46 44 43 41 44 44 46 47 51 58 59 58 57 61 64 67 65 70 66 73 72 77 75 61 72 74 72 69
49 45 44 44 47 51 49 47 55 50 52 50 54 62 60 56 58 59 65 70 64 64 66 69 76 78 77 78 73 70 75 69
51 49 45 47 49 51 56 52 47 55 54 59 59 60 57 54 51 58 60 59 57 59 59 56 62 67 70 71 67 64 59 61
49 52 51 51 55 56 56 57 52 49 58 66 58 60 57 52 52 53 54 54 55 54 56 60 62 65 67 62 65 60 56 53
49 49 49 49 56 60 62 63 60 53 60 67 66 61 58 55 57 58 56 57 60 65 62 54 65 69 68 72 62 60 56 56

GFSFLT2_sfc_rhum_012.txt.gz
RH
94 92 87 87 85 84 84 85 88 89 92 94 93 93 94 90 90 89 88 90 90 88 82 85 87 87 91 90 89 89 94 93
94 94 92 91 91 88 87 86 85 90 91 94 93 93 92 90 91 89 86 85 83 87 90 90 89 88 89 91 90 90 94 93
95 95 93 89 83 81 88 85 87 88 89 95 94 96 94 91 89 88 82 80 78 78 79 82 79 82 83 85 89 96 89 82
78 84 88 90 66 83 90 87 92 93 92 95 97 97 96 91 90 86 81 82 81 81 80 80 81 90 93 88 96 89 89 88
77 79 84 82 82 93 98 98 97 96 92 93 95 94 97 98 98 98 97 90 97 94 94 96 92 94 95 95 93 91 93 92
77 80 78 81 90 95 94 92 95 95 93 90 95 98 97 97 98 97 97 97 96 97 98 97 94 92 94 95 96 97 91 81
75 78 80 77 76 78 78 80 82 80 80 79 89 96 96 96 95 92 95 97 97 97 96 95 94 96 96 96 97 96 96 94
73 73 73 75 76 74 73 70 69 75 80 80 82 92 94 95 95 94 95 95 95 94 94 93 95 96 96 96 98 98 95 94
64 68 68 67 75 70 68 65 64 74 76 73 74 79 76 84 86 90 89 92 91 89 86 84 84 84 77 83 94 93 89 90
53 47 63 66 71 68 64 64 68 70 76 75 68 70 71 74 78 76 73 81 82 65 68 63 67 69 74 73 81 72 68 70
45 49 60 59 65 65 59 58 58 66 78 76 68 66 64 67 78 72 64 71 70 63 65 66 65 65 61 63 63 61 65 56
42 36 48 49 51 53 58 60 57 65 77 75 67 66 60 62 72 70 63 69 70 69 62 70 68 65 55 57 66 62 66 66
40 37 38 49 50 51 53 56 57 59 66 68 67 64 61 59 64 68 69 66 68 67 66 68 66 72 70 71 69 67 62 53
37 36 40 43 46 47 47 49 53 53 57 61 69 67 63 58 61 64 66 70 68 69 71 74 73 74 73 79 74 64 65 64
37 38 38 44 45 47 50 56 58 56 56 59 60 63 61 61 60 66 65 69 68 64 67 68 71 77 71 73 81 80 69 62
45 42 42 42 48 48 48 41 41 43 47 54 58 60 59 62 63 67 68 73 71 74 71 78 78 76 80 70 78 85 83 67
48 46 46 46 50 55 54 51 47 44 58 54 56 62 64 64 68 69 77 77 69 62 60 60 68 73 73 77 73 77 81 77
50 51 49 51 53 57 61 59 52 56 58 64 66 71 73 70 62 62 63 61 61 64 61 61 63 62 63 69 72 73 62 70
50 53 50 50 59 62 63 66 64 62 56 59 64 65 62 63 61 65 65 70 72 74 75 76 68 68 64 61 61 64 66 66
53 53 55 53 59 61 65 70 76 73 69 67 72 64 65 64 69 76 77 79 82 83 86 83 77 71 65 66 66 64 63 60

GFSFLT2_sfc_rhum_015.txt.gz
RH
94 91 86 87 86 86 87 89 89 92 92 92 91 91 92 91 91 89 90 90 89 84 81 85 84 87 89 90 91 91 96 97
93 92 91 91 92 89 89 90 90 91 93 93 93 92 90 92 93 88 87 84 86 88 91 90 88 88 88 89 90 92 94 89
94 94 93 91 88 82 88 87 89 91 94 93 96 97 95 92 90 88 82 82 82 80 80 80 80 81 82 88 93 98 92 90
96 95 95 93 72 82 90 89 94 94 96 98 98 96 95 93 89 86 84 83 82 82 84 84 87 93 95 87 92 87 87 87
85 89 92 93 92 91 98 98 98 97 93 95 97 98 97 98 98 98 97 90 97 95 96 97 93 95 96 97 96 95 97 93
81 89 87 84 96 97 96 98 97 97 96 94 97 98 98 98 99 98 98 98 96 97 98 97 94 94 95 96 96 98 98 96
81 88 88 80 88 87 91 92 97 94 93 85 95 97 97 97 97 97 96 98 97 98 97 96 95 95 96 95 94 98 98 99
79 86 86 78 79 78 77 78 77 83 85 84 86 96 96 96 96 96 96 97 96 95 93 92 93 93 90 88 93 97 95 92
79 78 82 81 78 77 74 72 70 77 81 81 84 88 88 94 96 96 96 95 93 90 86 76 76 75 69 75 86 89 78 76
71 60 73 75 81 78 74 73 74 73 81 83 76 82 78 83 85 89 85 91 88 67 70 65 68 71 73 73 68 66 63 67
62 63 71 71 78 78 74 70 69 70 81 83 77 74 77 79 82 81 75 79 80 66 68 67 64 65 61 66 66 64 63 58
52 55 67 66 65 64 64 64 66 67 72 82 77 76 74 70 78 80 72 75 76 73 66 74 70 67 55 58 68 66 67 68
46 39 54 57 57 57 57 59 60 64 64 69 77 75 72 71 72 77 74 73 70 72 70 68 74 75 73 72 71 69 65 62
45 41 39 47 50 50 51 53 56 58 60 63 70 74 71 68 65 68 72 73 73 76 74 79 76 81 72 82 76 71 66 64
40 40 41 46 49 49 52 57 58 60 57 62 59 69 69 69 63 60 68 71 69 72 76 74 74 79 76 74 81 79 85 69
44 44 44 44 49 51 51 49 43 43 44 48 52 65 62 65 62 62 64 70 76 74 73 80 80 78 79 74 75 82 76 68
52 56 54 52 55 57 60 60 55 52 55 62 59 62 69 65 65 61 67 76 76 74 69 65 69 69 65 69 72 81 83 86
57 55 52 57 59 62 67 69 65 66 64 70 64 71 72 77 75 76 70 68 72 74 67 66 67 68 71 75 72 68 69 74
58 62 59 61 63 62 62 65 71 75 74 73 72 78 76 75 72 69 76 79 85 85 87 82 82 82 79 80 77 77 70 73
65 63 63 62 63 63 70 70 74 78 81 84 84 78 81 83 86 84 87 86 88 90 93 94 95 96 94 84 71 74 73 69

GFSFLT2_sfc_rhum_018.txt.gz
RH
92 90 85 85 85 86 87 88 89 91 91 91 90 91 93 92 91 90 88 89 90 87 85 90 90 90 91 92 92 92 95 92
92 91 91 91 90 87 87 89 91 92 92 92 92 91 91 92 91 87 84 84 84 86 84 83 82 82 84 93 92 90 92 89
93 92 91 90 86 82 88 86 90 91 94 92 96 96 94 92 90 86 82 82 80 80 81 82 81 82 82 82 87 92 88 88
94 94 93 91 77 84 90 89 94 95 97 97 97 96 95 92 89 86 83 83 82 82 82 83 85 93 93 87 93 91 90 89
94 95 95 95 95 93 98 98 98 97 94 98 98 98 97 98 98 98 97 89 97 95 95 97 91 94 96 97 96 97 98 96
89 90 92 92 95 97 96 98 98 98 97 95 99 99 99 98 99 98 98 98 96 97 98 97 95 94 96 96 94 97 99 98
82 90 92 87 95 97 97 97 97 96 96 94 97 98 98 98 98 98 98 98 97 98 97 97 95 93 94 95 96 98 95 95
80 90 92 88 93 90 95 94 95 95 93 88 87 96 97 98 98 97 97 98 97 95 92 90 90 88 78 77 79 95 78 75
78 88 90 86 82 82 82 82 80 85 88 85 87 93 95 95 98 97 97 97 94 94 92 80 77 75 68 73 79 78 71 71
77 70 84 87 86 85 82 78 79 78 83 87 85 88 87 93 97 97 96 97 96 81 73 68 69 70 72 69 67 66 63 65
73 75 76 78 82 86 85 80 80 77 80 86 84 82 86 86 89 90 92 89 96 77 72 69 68 68 66 68 69 68 63 56
67 66 72 76 78 77 73 72 70 74 74 80 81 83 80 86 86 85 84 83 86 80 71 76 70 68 54 60 70 70 70 70
59 55 60 71 67 63 62 61 62 65 66 66 75 78 80 82 78 83 85 77 72 76 75 71 78 81 74 71 72 72 72 69
54 47 44 59 58 56 56 57 58 62 64 63 68 78 81 77 76 72 79 76 78 77 76 80 77 83 74 80 72 69 68 69
46 46 44 47 51 52 52 55 57 57 54 58 56 64 67 80 73 70 70 74 70 68 71 75 69 86 80 72 84 79 80 69
47 48 48 47 52 55 58 58 56 53 57 57 49 60 66 69 76 74 70 70 71 74 74 79 79 82 85 76 73 77 60 54
60 59 60 62 64 66 69 69 72 70 69 69 66 66 69 68 70 73 78 79 77 76 78 77 71 76 64 71 72 76 77 66
68 65 62 64 66 67 69 77 77 76 69 79 78 82 81 80 80 86 86 82 77 71 72 71 76 76 80 80 77 79 74 78
63 67 64 61 63 66 76 77 77 74 69 74 81 87 83 88 86 88 89 91 91 91 87 89 90 94 93 94 93 94 96 97
67 65 66 64 72 77 79 71 66 65 70 80 91 88 92 93 93 94 94 95 96 95 96 97 97 98 96 96 96 91 87 82

GFSFLT2_sfc_rhum_024.txt.gz
RH
37 41 62 83 85 86 87 88 88 88 87 87 87 89 89 88 86 85 86 86 86 88 86 86 85 84 86 87 86 80 48 39
40 43 42 47 49 85 88 88 89 89 87 88 88 88 88 88 87 84 84 84 84 83 81 81 80 80 80 83 79 76 45 42
46 41 49 49 43 56 78 85 88 89 82 86 83 47 50 56 84 82 79 79 78 78 78 78 76 78 76 75 75 36 42 38
44 52 53 53 39 47 50 47 44 48 49 55 44 56 53 52 69 82 81 81 81 80 78 72 68 35 37 66 35 42 39 39
44 55 58 56 44 39 36 38 42 46 57 56 54 55 54 53 51 51 53 72 46 51 49 38 45 44 39 44 40 44 34 34
45 53 57 56 39 35 37 39 41 44 47 61 58 51 54 56 49 49 53 45 53 48 43 53 53 50 47 48 47 41 34 33
44 52 54 45 51 43 47 50 44 48 50 52 57 51 53 52 51 49 46 44 44 47 45 46 47 45 42 41 38 41 43 29
44 49 47 44 43 50 47 49 44 47 45 47 63 60 55 49 46 42 40 40 40 44 46 44 39 38 37 36 32 34 32 32
45 47 43 46 44 43 41 37 46 40 38 50 54 58 52 53 43 41 36 39 52 52 50 47 43 35 34 32 32 38 32 33
40 39 40 42 41 40 36 34 38 36 36 38 47 51 53 51 42 41 40 42 43 44 44 42 41 36 33 28 29 30 34 34
40 42 42 39 40 38 42 45 39 32 36 34 39 45 48 50 43 42 45 43 43 44 43 46 42 36 30 29 30 29 30 26
38 38 41 42 39 41 36 35 33 33 30 29 36 35 41 45 41 44 44 44 42 42 48 43 43 39 28 26 30 31 30 30
38 37 41 37 35 35 31 31 28 27 25 31 38 37 39 44 40 41 43 46 49 49 46 52 49 43 44 38 34 35 40 34
35 34 33 30 26 30 33 35 30 32 33 36 35 39 40 39 44 43 44 44 49 52 55 52 48 45 47 42 41 34 34 37
31 33 35 38 36 30 31 30 31 29 32 31 34 39 39 40 42 44 47 47 46 49 51 54 53 48 48 49 44 43 36 31
36 36 34 36 41 36 42 36 36 37 38 35 36 37 38 38 41 45 49 46 49 48 43 52 53 53 48 43 50 48 46 49
41 35 37 38 41 44 42 43 38 38 40 42 40 36 35 34 40 48 51 48 49 55 58 58 53 54 52 52 60 52 51 60
40 37 35 40 43 47 51 50 46 42 40 38 33 33 32 35 38 50 53 55 56 56 59 61 60 61 60 60 63 67 65 64
39 37 35 36 40 40 42 42 42 41 40 37 42 37 37 42 49 53 52 58 59 64 70 74 82 86 90 92 92 95 95 96
42 39 37 35 36 38 40 41 39 41 42 44 43 43 44 51 55 57 57 58 62 68 73 90 90 95 96 96 96 95 94 94

GFSFLT2_sfc_rhum_030.txt.gz
RH
50 63 78 85 86 87 88 87 87 87 87 87 87 89 88 86 86 84 84 84 84 84 84 83 80 80 82 84 84 85 86 63
41 51 55 68 78 86 87 87 86 85 84 84 87 87 88 88 87 84 82 81 80 80 78 78 77 78 78 78 77 80 72 65
45 42 52 60 64 73 85 86 86 86 83 83 84 72 75 72 82 83 78 77 76 74 73 75 79 82 82 81 79 68 53 51
46 54 56 50 30 69 72 63 71 75 70 74 69 64 63 54 74 83 82 81 81 81 81 82 81 68 76 83 75 58 53 48
43 59 57 54 54 52 52 56 61 65 59 62 64 63 74 76 82 76 88 85 81 82 81 81 63 67 64 67 60 56 58 49
45 54 59 55 51 51 52 51 60 58 64 64 71 72 71 70 70 69 72 74 70 64 66 64 61 64 62 63 60 60 55 52
43 54 59 57 52 59 61 60 62 64 58 63 67 70 75 70 69 66 65 61 60 64 61 60 62 60 60 57 53 54 54 54
45 52 60 50 50 55 60 64 60 63 60 64 58 68 74 70 68 65 62 60 60 62 63 67 64 61 58 56 52 50 47 49
43 50 57 53 49 52 52 51 49 54 54 57 55 59 66 66 69 68 63 64 65 66 66 65 66 58 58 58 57 55 52 49
37 33 53 57 54 52 48 48 54 51 51 53 54 54 57 66 69 70 68 69 68 69 69 67 67 66 64 62 55 52 52 52
38 43 50 54 56 48 53 50 52 52 54 52 58 54 58 65 67 69 70 68 70 68 64 71 68 68 60 60 60 58 53 38
44 43 52 53 60 53 52 50 50 52 50 52 56 53 58 64 64 67 69 67 68 70 74 71 72 71 52 50 55 57 56 60
46 49 59 56 55 55 54 55 52 49 46 50 50 52 52 61 61 60 65 65 69 69 70 71 67 73 72 65 62 59 65 53
41 41 45 43 43 47 52 54 51 49 50 47 49 55 57 52 63 62 63 67 69 71 73 72 69 72 74 70 74 64 59 52
39 41 43 49 53 44 48 51 53 50 50 51 54 57 55 57 57 60 65 67 71 72 68 70 68 67 71 74 76 74 67 60
43 42 41 44 52 54 63 59 55 56 54 54 53 52 53 50 54 60 66 70 72 72 58 74 75 74 70 62 78 87 92 86
50 43 40 44 49 53 59 60 60 56 56 57 56 58 56 53 52 60 68 69 69 77 83 85 82 84 82 83 84 80 75 87
53 45 40 44 46 50 55 60 60 60 59 61 62 60 57 56 52 61 69 75 79 81 83 79 78 79 84 82 85 91 90 95
47 46 43 44 50 53 55 59 62 61 63 64 65 60 58 56 63 77 81 83 83 84 87 87 86 87 89 94 93 93 94 96
46 44 44 43 49 54 59 62 61 60 62 66 66 63 62 79 79 82 84 82 84 85 91 91 91 93 90 89 93 92 91 92

GFSFLT2_sfc_rhum_033.txt.gz
RH
84 86 83 87 88 87 88 87 88 87 87 88 88 89 90 90 88 85 85 85 85 83 82 82 81 81 81 83 84 84 91 79
77 84 85 91 92 89 88 86 85 84 84 86 86 88 89 88 87 87 84 84 82 80 80 80 80 82 84 84 85 83 73 73
67 70 78 84 89 84 87 86 85 84 84 85 87 88 89 88 88 85 82 81 79 78 77 78 79 80 80 82 83 85 70 63
58 65 74 77 54 86 88 82 88 87 84 86 85 88 87 75 83 83 81 81 81 81 81 81 82 83 77 81 88 76 70 59
64 61 59 60 63 86 89 86 91 91 84 76 79 72 78 83 94 90 95 88 92 87 89 90 83 81 72 79 74 68 69 63
62 63 58 59 63 65 70 73 77 81 72 68 75 82 80 79 91 91 95 95 95 94 94 86 83 70 68 70 68 65 64 64
61 61 64 56 57 68 64 69 74 69 76 72 72 75 78 77 73 74 72 70 70 71 68 66 67 64 66 68 65 60 58 59
60 61 64 56 65 59 65 66 70 66 77 71 70 77 75 74 74 72 70 71 71 70 67 66 67 68 66 62 61 59 54 53
56 64 58 52 57 58 61 71 53 63 69 65 66 66 70 72 75 77 76 77 72 72 70 75 77 70 71 69 66 63 61 54
55 51 73 73 62 59 54 59 62 58 62 67 64 62 62 70 74 74 76 75 74 77 79 77 77 79 78 72 69 64 60 56
67 62 76 89 85 78 63 56 53 56 65 68 64 62 66 69 68 72 74 77 79 79 79 84 84 82 73 69 73 74 70 52
70 62 76 83 84 75 74 64 61 62 63 61 54 60 60 68 70 71 74 73 76 80 80 78 82 84 62 63 76 80 78 77
50 49 71 72 67 60 62 60 57 58 60 54 51 59 62 64 68 68 69 72 73 73 79 82 75 82 78 70 77 79 77 79
55 50 53 55 58 58 60 65 58 58 64 61 62 62 62 57 68 69 69 76 77 79 78 81 82 82 87 80 81 71 72 71
50 52 52 58 59 63 64 65 66 63 61 65 60 60 59 60 64 70 72 76 81 81 80 87 94 88 88 95 96 94 83 73
53 49 51 54 56 61 64 72 69 66 65 64 62 62 63 59 61 67 74 79 82 88 84 94 94 97 92 72 88 88 89 84
56 53 52 54 57 60 66 65 65 64 63 64 67 66 62 60 60 71 86 89 91 94 94 91 81 83 83 82 78 84 94 99
57 53 52 56 59 62 64 66 66 68 68 74 74 71 68 71 78 89 90 92 94 96 94 87 93 89 86 92 93 92 84 89
53 56 52 52 58 67 69 69 70 70 74 76 73 72 78 91 89 91 94 93 93 92 90 93 94 95 91 85 94 97 94 94
52 50 49 53 64 64 65 67 72 72 73 72 72 75 91 90 89 90 90 90 92 93 95 96 95 96 96 94 95 92 93 97

GFSFLT2_sfc_rhum_036.txt.gz
RH
94 91 86 87 87 88 87 87 88 88 88 88 88 89 89 88 87 85 84 84 83 80 80 82 80 81 82 83 84 85 89 72
93 93 90 93 92 89 88 87 87 86 85 86 88 87 88 88 88 88 84 83 81 80 81 80 79 78 79 81 84 84 82 71
87 89 90 91 92 86 88 86 87 85 84 87 91 92 92 89 88 85 84 84 82 80 79 78 79 80 81 80 84 87 78 72
75 82 86 86 64 88 92 85 88 87 87 89 90 92 94 86 89 85 82 81 80 81 82 83 84 88 84 78 83 77 76 66
69 74 84 81 73 91 93 93 94 93 88 89 91 89 94 96 96 94 94 88 93 90 92 95 91 89 84 82 77 76 76 68
65 70 78 76 77 87 90 90 93 96 91 84 87 92 89 94 97 95 95 96 96 96 97 93 90 84 78 78 76 76 73 66
63 65 65 62 70 77 80 85 86 88 85 78 79 83 83 84 82 83 81 78 81 78 79 72 71 66 66 69 71 71 70 67
64 64 64 59 68 70 72 81 76 78 85 80 74 83 80 79 77 79 78 78 77 77 75 74 74 76 74 72 70 68 66 64
62 70 68 73 60 58 61 69 68 80 77 75 76 75 78 76 79 77 77 81 80 79 78 81 82 75 77 76 75 72 72 68
64 62 78 81 74 68 60 64 66 69 76 78 73 72 72 77 75 75 80 81 83 85 87 84 84 86 86 80 81 77 72 69
88 84 85 90 86 83 73 68 66 70 74 76 69 69 70 72 75 78 80 76 79 78 78 87 87 82 68 70 79 82 78 66
81 85 92 93 94 88 80 73 62 68 67 62 58 67 68 72 74 74 74 76 77 79 81 80 83 83 64 62 87 87 88 87
69 77 82 84 84 83 76 76 67 68 61 60 62 61 65 70 73 73 76 77 81 81 85 83 80 89 92 76 85 77 82 83
64 58 60 62 66 70 74 77 71 63 63 61 60 64 61 56 70 72 75 79 79 81 86 91 92 94 96 96 93 77 86 64
60 58 59 63 63 64 67 70 70 67 67 67 68 66 64 65 68 74 80 85 90 94 94 93 96 95 93 91 96 98 78 72
59 56 58 59 64 64 66 72 68 72 71 72 72 67 66 67 73 84 90 92 93 91 86 93 85 87 91 75 88 90 95 78
62 58 59 61 64 67 73 70 72 69 71 74 70 68 69 75 84 87 90 92 94 94 94 93 94 94 95 96 93 94 94 97
66 58 57 61 68 71 71 71 71 71 75 77 75 74 86 87 84 90 93 94 95 96 94 93 95 95 96 96 85 84 84 90
58 54 57 67 68 68 70 72 73 75 80 78 74 77 92 91 89 91 94 93 92 93 94 95 97 98 97 95 94 92 93 93
60 58 61 64 59 58 59 64 70 71 75 78 82 87 91 91 89 88 88 86 87 91 95 96 96 96 95 97 97 91 96 93

GFSFLT2_sfc_rhum_039.txt.gz
RH
94 92 88 88 89 90 90 90 90 89 89 89 88 88 88 87 86 84 83 81 78 76 78 79 78 78 78 81 83 84 80 74
94 93 92 93 93 90 89 88 88 86 86 86 88 87 87 87 86 86 82 80 78 77 79 78 77 78 80 84 85 81 82 75
94 94 93 93 91 87 88 87 87 87 86 88 91 93 93 91 88 86 84 82 81 80 79 79 80 83 84 82 82 84 79 74
90 92 92 90 71 91 92 88 91 90 89 90 92 93 94 89 92 88 83 81 81 82 84 85 88 93 89 82 83 78 77 71
79 84 88 88 79 95 96 95 94 93 90 91 94 91 96 97 97 96 96 88 96 93 94 96 93 94 92 88 82 81 82 74
72 82 85 87 85 87 88 93 96 96 94 93 96 97 96 97 98 96 96 97 95 96 97 94 86 84 84 81 81 84 83 78
72 78 84 80 85 90 93 94 94 92 93 91 88 91 89 92 93 90 86 82 82 80 80 77 77 76 76 75 74 73 74 77
68 73 79 75 81 85 89 88 89 89 91 88 82 86 86 85 83 80 80 85 86 85 84 84 85 83 79 78 77 80 77 74
70 76 69 75 73 73 77 82 79 83 89 85 80 84 82 82 81 82 85 85 83 83 82 81 78 76 78 79 80 78 79 76
71 64 82 92 92 77 66 71 73 74 82 82 78 76 77 82 80 81 83 80 82 80 82 79 82 83 83 79 79 78 79 78
96 96 96 95 92 90 82 66 77 77 81 79 74 76 77 80 81 81 80 79 82 81 82 84 84 80 75 72 77 88 85 77
92 93 95 95 93 91 84 69 69 69 72 70 72 69 67 68 71 71 70 72 82 82 82 79 82 88 72 71 85 86 90 93
88 84 86 85 87 84 83 83 86 80 56 57 57 57 59 64 65 72 77 76 79 79 85 85 86 95 95 82 88 83 88 77
78 75 69 76 67 75 78 78 71 70 65 67 65 64 63 62 70 71 70 72 80 90 94 94 96 96 96 97 95 76 83 57
62 64 64 66 69 70 73 74 74 70 71 72 70 66 66 68 74 81 88 91 95 94 94 91 96 95 93 92 91 95 87 74
64 64 64 63 64 67 66 70 70 76 76 76 74 69 72 77 83 88 92 93 93 94 88 94 94 96 95 82 93 96 98 96
69 66 65 68 69 72 74 75 75 74 74 75 73 74 79 82 85 89 91 94 94 95 96 96 96 96 97 97 96 97 96 96
63 59 64 71 72 72 72 71 70 72 76 77 77 80 91 89 85 89 91 92 93 95 95 94 96 97 97 97 85 81 80 85
62 64 72 71 69 69 70 72 74 77 82 82 80 84 94 90 87 88 92 92 91 92 93 94 96 97 96 98 96 95 92 93
65 71 68 58 54 58 63 63 68 73 78 84 86 88 89 89 91 92 90 89 90 90 94 95 95 97 95 96 98 98 95 90

GFSFLT2_sfc_rhum_042.txt.gz
RH
96 96 94 94 94 94 94 94 92 91 90 88 87 87 88 87 86 83 81 79 76 76 78 79 78 79 82 84 84 81 75 72
93 93 93 94 94 92 92 90 89 88 86 85 88 86 87 85 85 84 80 78 78 78 79 80 81 82 84 84 84 78 77 71
93 93 93 92 92 89 89 87 87 86 86 88 92 94 92 91 88 84 81 79 80 82 83 84 86 86 85 84 78 82 78 75
92 93 93 93 76 92 92 89 93 92 91 91 94 93 94 90 92 88 84 84 84 85 86 88 89 94 92 84 84 81 80 76
87 90 92 91 83 95 96 97 96 93 91 92 93 93 96 97 98 96 95 87 96 92 94 96 94 94 91 90 86 84 86 81
79 86 89 91 89 94 93 94 95 96 94 91 95 97 96 96 98 95 95 96 90 91 90 84 80 78 78 79 79 80 81 81
75 82 91 88 90 94 92 95 96 95 95 94 96 96 95 95 96 93 88 86 86 85 84 83 82 80 78 78 77 79 79 79
74 82 89 84 87 89 94 95 94 94 94 95 90 91 90 90 88 88 88 90 88 87 85 81 80 79 72 74 76 76 76 79
78 80 76 84 78 77 79 83 80 82 87 91 86 87 86 86 88 86 88 85 82 80 78 78 78 71 72 72 73 71 77 78
84 82 94 95 94 86 74 71 83 88 87 86 83 87 84 84 84 85 83 82 81 82 83 74 76 76 79 75 74 76 78 84
96 96 97 95 95 94 89 82 90 92 88 79 78 81 76 70 75 79 78 73 74 72 75 80 79 79 79 76 79 82 85 77
97 98 97 96 95 93 92 90 74 71 76 72 61 64 66 69 67 69 71 69 77 77 75 77 80 92 76 76 81 82 90 80
93 94 95 94 93 88 80 83 83 74 66 62 62 63 65 69 73 74 77 77 85 86 90 89 90 95 96 84 89 87 82 71
89 85 84 77 71 78 76 76 76 73 73 70 66 66 67 66 75 79 82 84 90 92 93 94 94 96 95 95 90 76 80 66
65 64 63 68 74 77 79 78 77 72 74 74 72 70 72 75 80 85 90 91 92 93 94 92 96 94 93 93 91 93 93 77
68 66 64 65 68 66 66 70 71 78 80 80 75 74 80 83 87 90 92 93 91 94 90 96 96 96 94 85 92 96 99 88
71 70 70 71 72 72 77 78 82 81 82 80 78 83 86 86 87 87 86 89 92 94 94 95 97 98 98 97 94 94 95 91
67 61 68 71 73 74 76 74 74 76 81 83 84 88 92 87 82 85 88 90 91 93 93 93 95 97 98 83 82 80 75 84
61 67 72 68 70 72 73 74 73 71 76 81 81 84 90 89 88 89 90 90 91 93 94 93 94 97 95 97 98 97 94 92
63 70 66 57 59 60 61 59 64 68 73 82 85 88 90 88 91 91 90 91 92 92 95 96 95 97 97 97 97 97 98 97

GFSFLT2_sfc_rhum_045.txt.gz
RH
76 72 82 95 95 94 94 94 93 91 89 88 87 87 87 86 84 79 78 76 75 75 76 79 78 79 80 83 82 78 42 38
76 76 72 76 76 95 94 92 90 88 87 86 87 86 86 84 83 81 77 78 78 78 81 83 84 84 84 85 79 74 46 41
72 67 72 74 71 74 86 88 88 87 82 88 84 64 64 64 79 81 80 81 82 82 85 87 88 82 83 84 76 46 48 44
66 72 72 71 59 70 71 67 64 65 65 70 64 71 67 66 77 85 83 83 83 84 85 84 73 50 47 62 46 52 46 47
66 71 73 70 65 67 63 63 65 66 71 70 71 69 69 66 67 63 68 74 57 58 56 54 58 53 51 55 52 50 47 45
63 70 73 75 66 65 66 62 65 64 66 74 72 68 72 72 66 68 67 58 60 57 54 61 59 56 53 52 52 47 43 42
60 69 73 72 73 70 70 71 67 69 68 69 69 70 73 69 71 62 58 57 55 57 55 51 52 50 47 47 45 44 42 38
61 68 73 70 69 70 70 74 72 78 82 83 85 78 79 67 64 61 59 56 54 52 52 48 47 47 44 46 44 40 41 45
64 69 66 69 64 61 62 60 68 78 89 85 82 78 77 71 64 60 56 55 59 54 51 49 43 40 43 40 39 40 41 50
64 72 80 78 78 69 74 72 85 89 90 86 80 80 74 67 58 67 58 54 50 56 48 59 45 42 45 41 40 41 44 52
79 81 84 88 89 94 96 89 83 84 81 67 69 68 62 57 68 55 55 52 51 48 46 51 45 45 42 39 45 37 44 42
86 87 93 95 97 95 92 81 64 61 62 51 54 50 54 52 50 54 50 50 52 52 57 52 52 54 39 40 43 37 52 47
91 97 97 96 90 74 62 63 57 50 44 49 50 49 51 56 51 53 54 54 60 60 54 57 48 55 49 40 41 58 60 46
90 86 87 76 60 53 50 50 49 48 49 54 52 55 55 53 58 56 59 53 60 62 62 54 50 57 55 48 39 40 47 48
64 62 64 60 57 55 54 53 54 50 50 47 53 57 58 60 62 61 62 57 54 60 62 65 56 57 67 58 51 45 55 42
51 52 51 55 56 52 52 45 44 54 54 52 50 61 62 60 61 62 62 58 59 58 56 65 66 59 58 58 67 74 75 64
59 56 55 56 58 57 54 59 59 57 57 61 61 62 63 61 62 62 60 56 59 63 62 62 60 64 60 65 67 59 60 71
59 54 55 59 59 61 61 62 58 51 53 53 54 56 58 63 59 62 62 61 61 60 65 68 65 65 62 63 62 62 60 67
54 53 56 56 57 55 55 53 48 44 44 44 49 51 56 60 65 65 60 64 66 66 68 69 70 69 70 68 70 71 69 72
53 54 51 46 47 48 47 44 40 41 46 46 50 52 52 59 64 66 67 68 69 71 73 72 75 80 78 74 74 71 72 83

GFSFLT2_sfc_rhum_048.txt.gz
RH
57 60 79 95 94 93 93 93 92 90 88 88 86 86 86 83 81 76 74 74 73 72 74 77 78 79 79 81 77 76 30 25
49 51 52 57 64 94 94 93 90 88 87 86 86 84 83 82 80 78 74 75 75 76 79 82 82 81 82 80 76 74 30 26
51 45 51 51 47 66 85 87 86 86 80 85 81 44 48 53 77 78 75 76 78 80 81 80 80 77 76 77 76 29 31 28
46 50 51 48 37 50 51 46 41 46 48 54 44 53 50 50 68 78 76 76 77 76 77 75 69 31 31 52 30 36 30 31
44 53 55 49 47 42 38 38 44 50 57 54 55 52 52 49 54 46 49 65 38 42 42 35 45 40 37 40 36 34 30 29
44 51 56 56 43 40 44 42 46 47 50 60 57 67 63 60 50 54 53 41 45 42 38 49 46 43 41 40 40 35 29 28
44 51 53 54 55 50 51 53 48 53 49 54 55 58 67 59 59 49 47 43 42 44 42 40 42 40 39 39 36 36 35 28
47 50 53 52 52 58 55 56 52 54 57 63 73 75 81 74 62 51 45 43 41 42 44 40 38 39 36 38 38 36 34 36
49 53 53 54 53 51 51 52 52 52 62 72 72 73 74 71 62 50 48 47 49 42 42 38 36 35 37 37 34 35 32 36
48 57 60 63 63 57 59 64 78 84 74 73 77 76 73 61 51 59 50 44 42 40 39 38 36 36 36 34 32 32 32 32
56 68 73 84 90 95 96 96 89 72 64 59 64 60 56 53 49 47 44 40 42 41 41 43 40 36 32 27 27 27 25 20
63 73 84 93 98 99 97 85 59 53 47 43 44 43 45 42 42 46 41 41 42 44 46 39 38 34 30 26 30 28 27 31
70 76 82 92 91 80 64 50 46 42 34 40 40 40 43 46 39 43 44 46 49 47 41 40 35 36 40 30 28 29 43 35
66 64 66 60 54 43 40 39 34 33 36 44 43 46 46 43 48 44 46 39 43 45 45 40 35 35 46 44 31 26 24 34
54 54 55 49 42 40 41 41 38 36 38 37 43 46 46 48 48 44 43 40 36 43 43 46 41 37 41 47 45 38 41 31
43 46 43 44 44 38 38 32 33 39 40 40 38 48 47 43 42 42 43 41 44 40 35 48 45 43 36 33 43 47 57 49
41 38 38 42 44 41 40 42 42 40 40 44 46 44 44 39 39 43 44 40 42 48 50 49 44 44 41 41 43 42 42 53
47 42 42 44 44 46 47 48 42 35 34 34 31 31 32 36 36 42 44 45 48 48 50 50 50 49 45 51 57 64 66 68
44 40 42 43 45 43 41 39 36 34 35 32 33 29 30 33 37 43 42 46 51 51 50 52 53 53 55 53 54 52 52 54
41 40 40 39 39 37 36 34 31 32 33 35 34 34 35 39 44 46 49 52 53 53 53 52 56 60 58 56 49 47 51 53

GFSFLT2_sfc_rhum_051.txt.gz
RH
62 67 82 94 93 92 92 92 92 89 88 87 86 86 85 81 79 74 72 72 71 72 74 77 78 78 77 78 77 77 38 23
55 58 59 64 70 93 92 91 89 87 86 85 85 82 82 81 81 77 73 72 73 74 77 77 75 74 73 73 75 77 30 25
40 39 46 50 54 72 87 87 86 84 79 82 80 43 50 56 78 77 73 73 74 76 76 76 74 76 72 66 76 27 29 26
40 48 48 42 32 50 46 45 41 45 46 51 42 47 50 50 64 77 74 72 75 74 74 72 75 32 35 57 29 34 30 29
40 47 48 42 46 38 36 36 43 46 52 49 52 47 51 48 45 54 62 74 39 48 44 36 42 41 36 38 37 35 29 28
42 47 51 47 38 32 34 34 41 42 45 55 54 53 59 57 45 45 58 42 44 39 37 46 45 42 40 40 39 36 32 32
41 44 49 50 46 46 46 47 54 60 60 62 76 83 85 79 71 51 52 47 40 42 41 40 41 40 39 40 39 39 37 33
42 44 46 48 51 56 64 58 58 54 61 66 67 70 68 61 56 51 46 44 44 44 46 44 42 44 40 39 39 38 36 37
44 44 47 49 53 52 52 51 54 58 62 67 70 70 72 69 59 55 51 48 52 48 45 48 41 35 37 35 34 36 32 35
43 42 52 60 65 65 66 70 72 86 78 71 72 72 67 59 56 56 55 48 46 48 42 39 40 37 36 32 31 28 29 30
48 60 76 76 77 80 93 96 93 91 74 62 66 61 57 54 48 46 43 39 42 43 42 42 39 35 29 28 32 26 30 22
53 75 85 81 86 95 84 94 88 68 53 49 48 42 41 39 42 47 42 40 43 44 47 38 36 33 25 30 34 28 27 29
70 77 72 74 69 61 55 55 51 44 36 38 38 38 40 45 37 42 44 39 43 44 41 41 35 33 33 32 32 35 33 30
74 66 66 56 43 44 44 42 35 30 35 41 40 43 43 38 48 41 41 40 39 40 44 41 36 34 38 35 40 33 26 30
58 50 49 42 37 36 36 34 36 34 37 37 42 42 41 43 42 42 41 37 35 41 41 43 41 37 38 37 41 40 36 30
37 38 38 36 35 33 37 30 36 39 38 37 36 43 40 37 37 37 40 39 42 41 35 46 44 42 36 30 38 39 46 49
39 37 34 37 36 35 36 36 38 38 40 41 39 40 37 36 34 36 41 39 41 45 47 46 42 42 41 43 45 45 47 56
40 36 35 38 39 41 41 43 40 36 35 36 32 29 27 30 29 36 39 40 42 42 58 57 52 54 49 56 53 60 60 68
40 35 37 40 43 43 42 40 39 38 35 33 33 28 28 32 35 38 36 38 41 47 55 59 51 58 60 58 55 53 50 52
37 36 38 39 40 39 38 35 33 33 33 33 34 34 35 38 38 38 39 40 47 44 59 60 56 66 61 60 58 54 51 47

GFSFLT2_sfc_rhum_057.txt.gz
RH
94 90 91 92 93 94 94 92 90 89 89 87 85 85 84 83 83 81 80 79 78 78 76 76 75 74 75 79 81 77 62 54
91 92 89 92 91 94 92 90 89 87 85 85 86 84 82 82 81 80 79 78 77 77 78 77 76 77 78 82 84 73 57 66
89 88 88 92 93 88 89 87 86 84 83 84 86 82 80 79 80 80 79 79 77 76 76 77 77 76 83 85 82 61 53 69
95 85 86 81 72 87 89 81 84 80 79 81 77 80 81 71 80 80 80 80 79 77 79 80 77 69 68 72 65 57 58 67
85 78 79 66 76 85 86 83 82 79 75 76 82 84 86 92 94 94 89 84 81 75 71 69 60 67 66 65 60 61 66 61
65 68 59 66 73 76 75 72 82 90 92 86 93 95 94 94 94 93 88 74 76 75 78 68 67 61 60 60 61 61 61 62
65 66 65 67 79 87 85 91 93 94 94 93 94 95 93 94 93 83 84 83 78 75 74 63 65 62 58 57 57 57 58 58
68 71 70 80 78 78 78 81 85 88 95 95 94 96 95 94 94 92 90 82 70 71 68 72 69 64 57 54 51 52 44 45
67 72 81 72 75 76 78 80 85 93 91 92 89 87 86 84 87 80 75 70 70 72 69 67 65 55 55 51 53 49 47 46
59 61 71 76 76 88 88 92 95 95 95 92 85 81 80 82 76 76 74 74 76 75 73 68 65 63 59 54 58 52 49 50
83 84 91 91 95 97 98 97 97 95 92 86 78 74 73 78 78 72 75 77 75 68 72 70 69 65 49 52 59 58 58 44
85 92 94 96 96 98 98 98 96 93 84 72 71 71 69 75 74 69 70 71 73 74 68 67 68 69 46 50 56 58 58 59
92 90 93 93 97 98 98 96 95 84 76 70 67 63 65 72 74 72 71 67 68 66 68 66 70 74 67 62 62 60 48 56
92 86 92 91 87 92 83 84 78 72 70 69 66 64 65 65 67 67 65 64 69 68 70 73 72 70 68 78 74 60 63 53
88 88 88 84 86 84 80 75 74 72 72 71 66 64 61 61 62 65 64 66 68 68 68 69 73 73 69 70 80 82 78 67
84 84 84 84 83 72 72 66 63 69 75 73 66 62 58 56 54 56 60 65 64 71 62 72 76 78 76 60 72 80 88 88
85 84 81 75 57 64 64 70 70 68 64 65 66 60 58 55 54 56 62 70 73 75 77 71 76 77 79 81 80 83 84 93
90 75 56 59 63 67 69 72 69 66 62 57 60 54 58 60 56 64 65 64 66 70 74 76 81 84 84 86 87 87 88 92
63 59 61 62 68 67 61 60 57 58 60 59 55 58 60 63 62 66 68 67 68 71 73 80 83 87 87 88 89 84 85 81
57 59 62 66 65 63 59 62 66 56 52 58 61 63 62 58 55 57 59 59 62 67 75 78 84 91 85 88 90 89 88 78

GFSFLT2_sfc_rhum_060.txt.gz
RH
95 89 80 93 94 93 92 90 90 90 88 85 84 85 84 82 82 81 80 79 77 74 73 76 75 78 82 84 81 73 63 68
94 84 94 94 93 92 91 90 89 87 85 85 85 84 83 82 82 80 79 77 76 71 73 75 75 77 84 86 78 70 71 78
88 95 95 96 94 87 88 86 86 85 84 86 87 83 81 80 81 79 78 77 76 73 76 76 79 79 85 80 72 64 73 75
95 94 94 89 76 90 90 81 86 83 82 82 78 84 84 78 80 79 79 78 80 81 80 78 73 69 70 71 65 63 66 70
96 89 88 86 84 91 90 88 84 82 80 81 82 86 88 92 95 95 92 84 82 68 64 65 64 66 67 68 66 64 70 68
94 92 85 82 84 81 83 82 90 92 94 91 96 98 96 96 96 93 86 78 74 74 74 67 66 60 58 58 58 62 61 60
80 80 73 83 88 87 94 97 98 98 97 94 96 97 98 95 93 83 84 80 75 73 70 65 62 57 56 52 53 50 46 50
68 68 77 84 91 89 93 95 96 98 98 96 92 96 94 94 92 90 87 78 74 71 69 67 65 59 53 53 54 51 49 52
68 80 83 78 81 82 88 87 94 95 97 94 89 86 86 84 86 79 76 76 74 71 68 65 64 56 54 53 55 53 51 49
68 70 78 78 84 90 86 92 96 97 96 91 86 84 78 76 78 80 84 81 77 74 70 66 68 66 60 59 57 56 53 52
83 84 88 92 95 96 96 94 96 96 92 86 80 79 76 78 78 82 80 78 77 70 74 69 69 67 53 56 57 60 58 49
83 88 94 96 96 97 98 97 96 92 86 79 75 78 76 80 79 77 73 72 76 71 66 70 72 69 47 49 63 62 60 64
88 92 94 92 94 98 99 97 96 90 82 74 72 72 73 75 76 71 69 68 72 67 70 67 71 75 68 72 70 63 61 64
93 88 91 88 85 96 92 92 92 82 80 76 70 72 74 70 72 69 66 70 69 68 70 76 75 75 70 80 76 72 69 58
90 89 89 87 83 89 87 81 81 80 80 78 73 70 68 67 65 67 67 70 69 70 72 71 74 77 75 72 82 84 86 74
88 86 87 86 92 91 82 80 76 78 80 77 74 66 64 61 63 66 68 72 70 76 71 76 81 80 79 67 77 79 90 94
94 94 92 89 91 86 77 77 76 80 81 76 76 72 66 61 62 66 72 77 74 73 76 74 81 80 83 86 86 90 90 95
97 96 92 89 85 79 76 76 82 80 79 76 65 61 64 62 63 69 70 71 72 76 78 79 84 90 89 91 90 91 93 95
94 85 71 75 74 74 75 69 67 64 66 61 58 61 66 62 64 64 67 66 65 67 70 73 80 90 90 92 93 93 92 92
75 66 73 69 62 65 65 64 68 65 60 64 65 66 65 67 59 60 59 60 64 70 77 79 83 92 90 92 93 92 94 94

GFSFLT2_sfc_rhum_063.txt.gz
RH
96 94 93 90 94 92 92 92 92 91 89 86 85 85 84 83 83 81 79 78 77 77 78 79 81 83 79 79 76 74 75 82
96 95 93 95 90 92 92 91 91 90 87 86 86 85 84 83 82 81 79 79 79 78 80 81 81 85 79 77 79 77 80 83
96 94 97 98 94 88 89 88 88 86 85 86 88 87 86 81 83 80 80 80 81 82 80 80 76 78 80 75 72 74 73 77
94 91 97 95 79 92 90 83 87 86 86 84 87 88 88 82 82 81 81 82 83 79 74 72 68 62 61 66 68 67 69 72
94 91 96 92 90 94 92 89 89 87 84 84 84 87 93 95 98 97 94 77 67 66 62 62 58 58 56 58 55 55 65 62
88 92 93 92 91 90 88 84 86 89 88 86 98 98 97 97 95 93 86 79 74 72 70 63 59 51 54 53 50 51 55 57
95 96 91 93 93 90 89 94 96 97 97 94 96 97 97 95 92 84 80 78 71 67 62 59 58 52 56 53 51 52 52 56
85 91 83 90 92 95 97 98 99 98 98 97 96 97 95 94 92 90 89 76 72 68 65 63 63 58 56 55 54 56 53 54
76 79 87 89 90 94 97 97 97 98 98 94 92 89 87 85 86 81 79 76 73 69 67 67 64 55 56 53 56 57 55 54
72 71 87 89 90 92 96 97 98 98 97 93 88 85 80 80 82 87 85 78 75 73 68 68 69 65 60 57 58 58 56 56
83 88 92 95 95 96 97 96 97 97 93 90 84 79 77 82 87 84 79 78 76 68 74 70 67 64 57 56 65 63 63 52
92 91 96 96 97 98 98 97 97 92 89 84 79 81 79 80 79 80 71 76 75 70 67 74 72 68 49 53 70 66 66 68
94 94 96 92 95 97 98 96 96 88 83 78 79 80 78 79 77 73 71 70 70 66 72 68 75 77 70 75 73 71 66 69
96 90 96 90 85 98 96 95 94 85 84 80 76 77 74 72 72 70 69 74 71 70 72 79 78 80 75 82 79 74 70 67
95 93 92 89 90 89 92 88 85 85 86 84 79 77 73 71 71 74 72 73 74 74 76 74 76 80 78 74 84 86 88 80
94 94 92 93 93 95 91 87 83 86 86 82 79 75 71 69 69 71 73 77 75 78 76 80 83 82 85 73 81 81 89 94
95 94 93 91 92 94 88 86 83 86 85 80 82 76 71 65 67 73 79 78 74 74 78 79 87 85 87 88 89 93 92 95
96 95 94 93 95 94 88 84 83 87 88 88 79 76 74 68 62 70 72 68 69 74 76 74 83 90 93 93 92 92 93 96
96 95 96 96 96 93 90 83 82 81 84 77 73 75 70 64 67 72 63 64 65 66 71 74 78 85 88 93 95 94 94 95
96 97 86 86 85 89 78 74 78 76 70 73 74 69 70 76 76 61 57 61 67 73 79 84 88 92 88 91 95 95 96 95